Regional Weather Roundup
Issued by NWS

Home | Current Version | Previous Version | Text Only | Print | Product List | Glossary Off
Versions: 1 2 3 4 5 6 7 8 9 10 11 12 13 14 15 16 17 18 19 20 21 22 23 24 25 26 27 28 29

000
ASUS45 KPSR 022110
RWRAZ

ARIZONA HOURLY REGIONAL WEATHER ROUNDUP
NATIONAL WEATHER SERVICE PHOENIX AZ
200 PM MST MON MAY 02 2016

NOTE: FAIR INDICATES FEW OR NO CLOUDS BELOW 12,000 FEET WITH NO
SIGNIFICANT WEATHER AND/OR OBSTRUCTIONS TO VISIBILITY.

AZZ001>003-036-022200-
NORTHWEST ARIZONA

CITY           SKY/WX    TMP DP  RH WIND       PRES   REMARKS
BULLHEAD CITY  MOSUNNY   84  37  18 E6G20     29.99S
KINGMAN        MOSUNNY   73  34  23 CALM      30.08F
$$

AZZ004>008-015-016-018-022200-
NORTH CENTRAL ARIZONA

CITY           SKY/WX    TMP DP  RH WIND       PRES   REMARKS
GRAND CANYON   MOSUNNY   57  33  40 NE10G18   30.21F
WILLIAMS       DRIZZLE   46  39  76 S7G15     30.28S
PRESCOTT       PTSUNNY   62  36  37 SW7       30.13S
FLAGSTAFF      PTSUNNY   52  34  50 VRB3      30.20F
PAYSON         MOSUNNY   66  28  24 VRB3G14   30.15F
PAGE           PTSUNNY   63  39  41 S9        30.18S
$$

AZZ009>014-017-022200-
NORTHEAST ARIZONA

CITY           SKY/WX    TMP DP  RH WIND       PRES   REMARKS
WINSLOW        PTSUNNY   64  39  39 VRB3      30.16F
SAINT JOHNS    CLOUDY    64  34  32 N9        30.13F
WINDOW ROCK    PTSUNNY   57  35  43 NE8       30.21F
SHOW LOW       PTSUNNY   55  32  41 NW6       30.18F
$$

AZZ023-022200-
GREATER PHOENIX AREA

CITY           SKY/WX    TMP DP  RH WIND       PRES   REMARKS
PHOENIX        MOSUNNY   85  35  16 S8        29.93F
BUCKEYE        SUNNY     82  32  16 SE3       29.96F
GLENDALE       MOSUNNY   82  36  18 CALM      29.96F
LUKE AFB       SUNNY     83  36  18 E9        29.93F
DEER VALLEY    SUNNY     82  34  17 SE8       29.95F
SCOTTSDALE     SUNNY     83  29  14 SW8       29.97F
MESA-FALCON    MOSUNNY  N/A N/A N/A S14       29.93F
MESA-GATEWAY   MOSUNNY   82  36  18 VRB6      29.96F
CHANDLER       PTSUNNY   84  34  16 SW9       29.94F
$$

AZZ027-028-022200-
SOUTHWEST MARICOPA COUNTY AND PINAL COUNTY

CITY           SKY/WX    TMP DP  RH WIND       PRES   REMARKS
CASA GRANDE    SUNNY    N/A N/A N/A MISG        N/A
GILA BEND      MOSUNNY   85  35  16 VRB3G18   29.91F
$$

AZZ503-504-507>509-022200-
SOUTHEAST ARIZONA

CITY           SKY/WX    TMP DP  RH WIND       PRES   REMARKS
TUCSON         SUNNY     82  27  13 CALM      29.99F
DAVIS-MONTHAN  SUNNY     80  30  16 VRB3      29.97F
NOGALES        SUNNY     80  25  13 W13G21    30.01F
SIERRA VISTA   SUNNY     73  28  18 VRB3      30.08F
DOUGLAS        SUNNY     75  29  18 VRB6      30.05F
SAFFORD        SUNNY     76  31  19 SE12G18   30.04F
$$

AZZ020-021-025-026-031-022200-
SOUTHWEST ARIZONA

CITY           SKY/WX    TMP DP  RH WIND       PRES   REMARKS
YUMA           MOSUNNY   87  38  17 VRB3      29.92F
$$

CAZ031-033-041-043-047-048-061-022200-
SOUTHERN CALIFORNIA

CITY           SKY/WX    TMP DP  RH WIND       PRES   REMARKS
DOWNTOWN L.A.  MOSUNNY   70  54  56 VRB6      29.98F
L.A. AIRPORT   MOSUNNY   65  53  65 W16       30.01F
SAN DIEGO      MOSUNNY   69  55  60 W14       30.01S
BURBANK        MOSUNNY   80  46  30 S7        29.97F
ONTARIO        MOSUNNY   85  39  19 SW9       29.96F
RIVERSIDE      MOSUNNY   85  40  20 MISG      29.95F
PALM SPRINGS   MOSUNNY   89  40  17 SE10G16   29.95F
EL CENTRO NAS  MOSUNNY   86  39  19 VRB3      29.93F
IMPERIAL       SUNNY     88  40  18 VRB6      29.92F
BLYTHE         SUNNY     88  40  18 VRB7      29.93F
NEEDLES        MOSUNNY   87  37  17 CALM      29.96F
$$

NVZ020-UTZ003-022200-
SOUTHERN NEVADA-UTAH

CITY           SKY/WX    TMP DP  RH WIND       PRES   REMARKS
LAS VEGAS      MOSUNNY   77  35  21 CALM      30.02F
SALT LAKE CITY MOSUNNY   67  28  23 VRB3      30.18F
$$

NMZ009-TXZ055-022200-
NEW MEXICO-WEST TEXAS

CITY           SKY/WX    TMP DP  RH WIND       PRES   REMARKS
ALBUQUERQUE    MOSUNNY   59  33  37 N6        30.21F
EL PASO        MOSUNNY   67  32  27 VRB7      30.13F
$$


........................KEY........................
SKY/WX - SKY CONDITION/WEATHER
TMP    - TEMPERATURE IN FAHRENHEIT
DP     - DEW POINT IN FAHRENHEIT
RH     - RELATIVE HUMIDITY IN PERCENT
WIND   - DIRECTION AND SPEED IN MILES PER HOUR (MPH)
VRB    - VARIABLE WIND DIRECTION
PRES   - MEAN SEA LEVEL PRESSURE IN INCHES OF MERCURY
         F - FALLING PRESSURE   R - RISING PRESSURE
         S - STEADY PRESSURE
VSB    - VISIBILITY IN MILES
HX     - HEAT INDEX IN FAHRENHEIT
WCI    - WIND CHILL INDEX IN FAHRENHEIT
TC     - TEMPERATURE IN CELSIUS WHICH IS ALSO KNOWN AS
         TEMPERATURE IN CENTIGRADE
AFB    - AIR FORCE BASE
         LUKE AFB IS LUKE AIR FORCE BASE
         DAVIS-MONTHAN IS DAVIS-MONTHAN AIR FORCE BASE
NAS    - NAVAL AIR STATION
         EL CENTRO NAS IS EL CENTRO NAVAL AIR STATION
N/A    - NOT AVAILABLE





USA.gov is the U.S. government's official web portal to all federal, state and local government web resources and services.